Time,TemperatureF,DewpointF,PressureIn,WindDirection,WindDirectionDegrees,WindSpeedMPH,WindSpeedGustMPH,Humidity,HourlyPrecipIn,Conditions,Clouds,dailyrainin,SolarRadiationWatts/m^2,SoftwareType,DateUTC
2013-05-19 00:21:00,39.0,38.0,-100.00,North,350,2.0,5.0,98,0.00,,,0.60,0.000000,,2013-05-19 06:21:00,
2013-05-19 00:32:00,39.0,38.0,-100.00,North,350,2.0,5.0,98,0.00,,,0.60,0.000000,,2013-05-19 06:32:00,
2013-05-19 00:42:00,39.0,38.0,-100.00,North,350,2.0,5.0,98,0.00,,,0.60,0.000000,,2013-05-19 06:42:00,
2013-05-19 00:51:00,39.0,38.0,-100.00,North,350,2.0,5.0,98,0.00,,,0.60,0.000000,,2013-05-19 06:51:00,
2013-05-19 01:21:00,38.0,37.0,-100.00,North,357,3.0,5.0,97,0.00,,,0.60,1.000000,,2013-05-19 07:21:00,
2013-05-19 01:32:00,38.0,37.0,-100.00,North,357,3.0,5.0,97,0.00,,,0.60,1.000000,,2013-05-19 07:32:00,
2013-05-19 01:41:00,38.0,37.0,-100.00,North,357,3.0,5.0,97,0.00,,,0.60,1.000000,,2013-05-19 07:41:00,
2013-05-19 01:52:00,38.0,37.0,-100.00,North,357,3.0,5.0,97,0.00,,,0.60,1.000000,,2013-05-19 07:52:00,
2013-05-19 02:22:00,37.0,36.0,-100.00,NW,304,2.0,4.0,98,0.00,,,0.60,1.000000,,2013-05-19 08:22:00,
2013-05-19 02:32:00,37.0,36.0,-100.00,NW,304,2.0,4.0,98,0.00,,,0.60,1.000000,,2013-05-19 08:32:00,
2013-05-19 02:41:00,37.0,36.0,-100.00,NW,304,2.0,4.0,98,0.00,,,0.60,1.000000,,2013-05-19 08:41:00,
2013-05-19 02:51:00,37.0,36.0,-100.00,NW,304,2.0,4.0,98,0.00,,,0.60,1.000000,,2013-05-19 08:51:00,
2013-05-19 03:21:00,36.0,36.0,-100.00,NW,304,2.0,3.0,99,0.00,,,0.60,0.000000,,2013-05-19 09:21:00,
2013-05-19 03:32:00,36.0,36.0,-100.00,NW,304,2.0,3.0,99,0.00,,,0.60,0.000000,,2013-05-19 09:32:00,
2013-05-19 03:42:00,36.0,36.0,-100.00,NW,304,2.0,3.0,99,0.00,,,0.60,0.000000,,2013-05-19 09:42:00,
2013-05-19 03:53:00,36.0,36.0,-100.00,NW,304,2.0,3.0,99,0.00,,,0.60,0.000000,,2013-05-19 09:53:00,
2013-05-19 04:22:00,36.0,36.0,-100.00,WNW,301,1.0,4.0,99,0.00,,,0.60,1.000000,,2013-05-19 10:22:00,
2013-05-19 04:32:00,36.0,36.0,-100.00,WNW,301,1.0,4.0,99,0.00,,,0.60,1.000000,,2013-05-19 10:32:00,
2013-05-19 04:42:00,36.0,36.0,-100.00,WNW,301,1.0,4.0,99,0.00,,,0.60,1.000000,,2013-05-19 10:42:00,
2013-05-19 04:52:00,36.0,36.0,-100.00,WNW,301,1.0,4.0,99,0.00,,,0.60,1.000000,,2013-05-19 10:52:00,
2013-05-19 05:21:00,37.0,37.0,-100.00,WNW,285,0.0,2.0,100,0.00,,,0.58,0.000000,,2013-05-19 11:21:00,
2013-05-19 05:32:00,37.0,37.0,-100.00,WNW,285,0.0,2.0,100,0.00,,,0.58,0.000000,,2013-05-19 11:32:00,
2013-05-19 05:42:00,37.0,37.0,-100.00,WNW,285,0.0,2.0,100,0.00,,,0.58,0.000000,,2013-05-19 11:42:00,
2013-05-19 05:52:00,37.0,37.0,-100.00,WNW,285,0.0,2.0,100,0.00,,,0.58,0.000000,,2013-05-19 11:52:00,
2013-05-19 06:21:00,38.0,38.0,-100.00,WNW,290,0.0,2.0,100,0.00,,,0.56,1.000000,,2013-05-19 12:21:00,
2013-05-19 06:31:00,38.0,38.0,-100.00,WNW,290,0.0,2.0,100,0.00,,,0.56,1.000000,,2013-05-19 12:31:00,
2013-05-19 06:41:00,38.0,38.0,-100.00,WNW,290,0.0,2.0,100,0.00,,,0.56,1.000000,,2013-05-19 12:41:00,
2013-05-19 06:52:00,38.0,38.0,-100.00,WNW,290,0.0,2.0,100,0.00,,,0.56,1.000000,,2013-05-19 12:52:00,
2013-05-19 07:21:00,39.0,39.0,-100.00,SW,233,1.0,3.0,100,0.00,,,0.52,7.000000,,2013-05-19 13:21:00,
2013-05-19 07:32:00,39.0,39.0,-100.00,SW,233,1.0,3.0,100,0.00,,,0.52,7.000000,,2013-05-19 13:32:00,
2013-05-19 07:42:00,39.0,39.0,-100.00,SW,233,1.0,3.0,100,0.00,,,0.52,7.000000,,2013-05-19 13:42:00,
2013-05-19 07:52:00,39.0,39.0,-100.00,SW,233,1.0,3.0,100,0.00,,,0.52,7.000000,,2013-05-19 13:52:00,
2013-05-19 08:21:00,40.0,39.0,-100.00,SW,224,2.0,4.0,95,0.00,,,0.47,34.000000,,2013-05-19 14:21:00,
2013-05-19 08:32:00,40.0,39.0,-100.00,SW,224,2.0,4.0,95,0.00,,,0.47,34.000000,,2013-05-19 14:32:00,
2013-05-19 08:41:00,40.0,39.0,-100.00,SW,224,2.0,4.0,95,0.00,,,0.47,34.000000,,2013-05-19 14:41:00,
2013-05-19 08:51:00,40.0,39.0,-100.00,SW,224,2.0,4.0,95,0.00,,,0.47,34.000000,,2013-05-19 14:51:00,
2013-05-19 09:21:00,40.0,37.0,-100.00,SSW,201,2.0,7.0,89,0.00,,,0.36,88.000000,,2013-05-19 15:21:00,
2013-05-19 09:33:00,40.0,37.0,-100.00,SSW,201,2.0,7.0,89,0.00,,,0.36,88.000000,,2013-05-19 15:33:00,
2013-05-19 09:43:00,40.0,37.0,-100.00,SSW,201,2.0,7.0,89,0.00,,,0.36,88.000000,,2013-05-19 15:43:00,
2013-05-19 09:53:00,40.0,37.0,-100.00,SSW,201,2.0,7.0,89,0.00,,,0.36,88.000000,,2013-05-19 15:53:00,
2013-05-19 10:23:00,42.0,38.0,-100.00,SW,217,2.0,4.0,85,0.00,,,0.24,149.000000,,2013-05-19 16:23:00,
2013-05-19 10:32:00,42.0,38.0,-100.00,SW,217,2.0,4.0,85,0.00,,,0.24,149.000000,,2013-05-19 16:32:00,
2013-05-19 10:42:00,42.0,38.0,-100.00,SW,217,2.0,4.0,85,0.00,,,0.24,149.000000,,2013-05-19 16:42:00,
2013-05-19 10:52:00,42.0,38.0,-100.00,SW,217,2.0,4.0,85,0.00,,,0.24,149.000000,,2013-05-19 16:52:00,
2013-05-19 11:22:00,46.0,40.0,-100.00,South,187,2.0,5.0,78,0.00,,,0.18,285.000000,,2013-05-19 17:22:00,
2013-05-19 11:32:00,46.0,40.0,-100.00,South,187,2.0,5.0,78,0.00,,,0.18,285.000000,,2013-05-19 17:32:00,
2013-05-19 11:42:00,46.0,40.0,-100.00,South,187,2.0,5.0,78,0.00,,,0.18,285.000000,,2013-05-19 17:42:00,
2013-05-19 11:52:00,46.0,40.0,-100.00,South,187,2.0,5.0,78,0.00,,,0.18,285.000000,,2013-05-19 17:52:00,
2013-05-19 12:21:00,45.0,38.0,-100.00,NE,49,5.0,7.0,77,0.00,,,0.12,257.000000,,2013-05-19 18:21:00,
2013-05-19 12:32:00,45.0,38.0,-100.00,NE,49,5.0,7.0,77,0.00,,,0.12,257.000000,,2013-05-19 18:32:00,
2013-05-19 12:42:00,45.0,38.0,-100.00,NE,49,5.0,7.0,77,0.00,,,0.12,257.000000,,2013-05-19 18:42:00,
2013-05-19 12:52:00,45.0,38.0,-100.00,NE,49,5.0,7.0,77,0.00,,,0.12,257.000000,,2013-05-19 18:52:00,
2013-05-19 13:21:00,44.0,39.0,-100.00,ENE,62,11.0,17.0,84,0.01,,,0.06,196.000000,,2013-05-19 19:21:00,
2013-05-19 13:32:00,44.0,39.0,-100.00,ENE,62,11.0,17.0,84,0.01,,,0.06,196.000000,,2013-05-19 19:32:00,
2013-05-19 13:42:00,44.0,39.0,-100.00,ENE,62,11.0,17.0,84,0.01,,,0.06,196.000000,,2013-05-19 19:42:00,
2013-05-19 13:52:00,44.0,39.0,-100.00,ENE,62,11.0,17.0,84,0.01,,,0.06,196.000000,,2013-05-19 19:52:00,
2013-05-19 14:21:00,45.0,39.0,-100.00,SSE,154,5.0,13.0,78,0.01,,,0.04,288.000000,,2013-05-19 20:21:00,
2013-05-19 14:31:00,45.0,39.0,-100.00,SSE,154,5.0,13.0,78,0.01,,,0.04,288.000000,,2013-05-19 20:31:00,
2013-05-19 14:41:00,45.0,39.0,-100.00,SSE,154,5.0,13.0,78,0.01,,,0.04,288.000000,,2013-05-19 20:41:00,
2013-05-19 14:51:00,45.0,39.0,-100.00,SSE,154,5.0,13.0,78,0.01,,,0.04,288.000000,,2013-05-19 20:51:00,
2013-05-19 15:22:00,46.0,39.0,-100.00,SSE,165,7.0,10.0,77,0.00,,,0.03,374.000000,,2013-05-19 21:22:00,
2013-05-19 15:32:00,46.0,39.0,-100.00,SSE,165,7.0,10.0,77,0.00,,,0.03,374.000000,,2013-05-19 21:32:00,
2013-05-19 15:43:00,46.0,39.0,-100.00,SSE,165,7.0,10.0,77,0.00,,,0.03,374.000000,,2013-05-19 21:43:00,
2013-05-19 15:53:00,46.0,39.0,-100.00,SSE,165,7.0,10.0,77,0.00,,,0.03,374.000000,,2013-05-19 21:53:00,
2013-05-19 16:23:00,47.0,40.0,-100.00,South,182,7.0,12.0,76,0.00,,,0.03,404.000000,,2013-05-19 22:23:00,
2013-05-19 16:33:00,47.0,40.0,-100.00,South,182,7.0,12.0,76,0.00,,,0.03,404.000000,,2013-05-19 22:33:00,
2013-05-19 16:42:00,47.0,40.0,-100.00,South,182,7.0,12.0,76,0.00,,,0.03,404.000000,,2013-05-19 22:42:00,
2013-05-19 16:52:00,47.0,40.0,-100.00,South,182,7.0,12.0,76,0.00,,,0.03,404.000000,,2013-05-19 22:52:00,
2013-05-19 17:21:00,44.0,39.0,-100.00,NE,55,6.0,12.0,84,0.03,,,0.06,193.000000,,2013-05-19 23:21:00,
2013-05-19 17:32:00,44.0,39.0,-100.00,NE,55,6.0,12.0,84,0.03,,,0.06,193.000000,,2013-05-19 23:32:00,
2013-05-19 17:42:00,44.0,39.0,-100.00,NE,55,6.0,12.0,84,0.03,,,0.06,193.000000,,2013-05-19 23:42:00,
2013-05-19 17:52:00,44.0,39.0,-100.00,NE,55,6.0,12.0,84,0.03,,,0.06,193.000000,,2013-05-19 23:52:00,
2013-05-19 18:21:00,45.0,40.0,-100.00,NE,45,8.0,12.0,84,0.01,,,0.07,229.000000,,2013-05-20 00:21:00,
2013-05-19 18:32:00,45.0,40.0,-100.00,NE,45,8.0,12.0,84,0.01,,,0.07,229.000000,,2013-05-20 00:32:00,
2013-05-19 18:41:00,45.0,40.0,-100.00,NE,45,8.0,12.0,84,0.01,,,0.07,229.000000,,2013-05-20 00:41:00,
2013-05-19 18:52:00,45.0,40.0,-100.00,NE,45,8.0,12.0,84,0.01,,,0.07,229.000000,,2013-05-20 00:52:00,
2013-05-19 19:21:00,45.0,40.0,-100.00,WSW,251,3.0,9.0,83,0.00,,,0.07,165.000000,,2013-05-20 01:21:00,
2013-05-19 19:31:00,45.0,40.0,-100.00,WSW,251,3.0,9.0,83,0.00,,,0.07,165.000000,,2013-05-20 01:31:00,
2013-05-19 19:42:00,45.0,40.0,-100.00,WSW,251,3.0,9.0,83,0.00,,,0.07,165.000000,,2013-05-20 01:42:00,
2013-05-19 19:52:00,45.0,40.0,-100.00,WSW,251,3.0,9.0,83,0.00,,,0.07,165.000000,,2013-05-20 01:52:00,
2013-05-19 20:21:00,44.0,40.0,-100.00,WSW,243,4.0,7.0,86,0.01,,,0.08,77.000000,,2013-05-20 02:21:00,
2013-05-19 20:31:00,44.0,40.0,-100.00,WSW,243,4.0,7.0,86,0.01,,,0.08,77.000000,,2013-05-20 02:31:00,
2013-05-19 20:42:00,44.0,40.0,-100.00,WSW,243,4.0,7.0,86,0.01,,,0.08,77.000000,,2013-05-20 02:42:00,
2013-05-19 20:51:00,44.0,40.0,-100.00,WSW,243,4.0,7.0,86,0.01,,,0.08,77.000000,,2013-05-20 02:51:00,
2013-05-19 21:21:00,43.0,41.0,-100.00,NNW,343,2.0,7.0,92,0.00,,,0.07,10.000000,,2013-05-20 03:21:00,
2013-05-19 21:33:00,43.0,41.0,-100.00,NNW,343,2.0,7.0,92,0.00,,,0.07,10.000000,,2013-05-20 03:33:00,
2013-05-19 21:42:00,43.0,41.0,-100.00,NNW,343,2.0,7.0,92,0.00,,,0.07,10.000000,,2013-05-20 03:42:00,
2013-05-19 21:52:00,43.0,41.0,-100.00,NNW,343,2.0,7.0,92,0.00,,,0.07,10.000000,,2013-05-20 03:52:00,
2013-05-19 22:23:00,44.0,36.0,-100.00,NNE,19,11.0,18.0,74,0.01,,,0.08,1.000000,,2013-05-20 04:23:00,
2013-05-19 22:33:00,44.0,36.0,-100.00,NNE,19,11.0,18.0,74,0.01,,,0.08,1.000000,,2013-05-20 04:33:00,
2013-05-19 22:42:00,44.0,36.0,-100.00,NNE,19,11.0,18.0,74,0.01,,,0.08,1.000000,,2013-05-20 04:42:00,
2013-05-19 22:52:00,44.0,36.0,-100.00,NNE,19,11.0,18.0,74,0.01,,,0.08,1.000000,,2013-05-20 04:52:00,
2013-05-19 23:21:00,43.0,34.0,-100.00,NNE,19,15.0,22.0,71,0.00,,,0.08,0.000000,,2013-05-20 05:21:00,
2013-05-19 23:32:00,43.0,34.0,-100.00,NNE,19,15.0,22.0,71,0.00,,,0.08,0.000000,,2013-05-20 05:32:00,
2013-05-19 23:42:00,43.0,34.0,-100.00,NNE,19,15.0,22.0,71,0.00,,,0.08,0.000000,,2013-05-20 05:42:00,
2013-05-19 23:51:00,43.0,34.0,-100.00,NNE,19,15.0,22.0,71,0.00,,,0.08,0.000000,,2013-05-20 05:51:00,